This demonstration page uses our WeatherBlox Daily Observations layout. Learn more.

Left ArrowRight Arrow

Hourly Observations for May 6, 2017

Temp ( °F °C ) Dew Point ( °F °C ) Humidity (%) Winds ( mph kmh ) Pressure ( in mb ) Visibility ( mi km ) Precip ( " mm )
12:15 am 00:15 Clear 57 14 39 4 51 51 SSE 3 6 29.91 1013 10 16 0.00 0.00
12:35 am 00:35 Clear 55 13 39 4 55 55 S 3 6 29.91 1013 10 16 0.00 0.00
12:55 am 00:55 Clear 55 13 39 4 55 55 S 5 7 29.91 1013 10 16 0.00 0.00
1:15 am 01:15 Clear 57 14 41 5 55 55 SW 9 15 29.91 1013 10 16 0.00 0.00
1:35 am 01:35 Clear 57 14 39 4 51 51 SSW 9 15 29.91 1013 10 16 0.00 0.00
1:55 am 01:55 Clear 57 14 39 4 51 51 SSW 9 15 29.91 1013 10 16 0.00 0.00
2:15 am 02:15 Clear 57 14 39 4 51 51 SSW 9 15 29.91 1013 10 16 0.00 0.00
2:35 am 02:35 Clear 55 13 39 4 55 55 SW 9 15 29.91 1013 10 16 0.00 0.00
2:55 am 02:55 Clear 55 13 39 4 55 55 SW 8 13 29.91 1013 10 16 0.00 0.00
3:15 am 03:15 Clear 55 13 39 4 55 55 SW 8 13 29.88 1012 10 16 0.00 0.00
3:35 am 03:35 Clear 55 13 39 4 55 55 SW 9 15 29.88 1012 10 16 0.00 0.00
3:55 am 03:55 Clear 55 13 39 4 55 55 SW 7 11 29.91 1013 10 16 0.00 0.00
4:15 am 04:15 Clear 55 13 39 4 55 55 WSW 7 11 29.91 1013 10 16 0.00 0.00
4:35 am 04:35 Clear 55 13 39 4 55 55 WSW 8 13 29.91 1013 10 16 0.00 0.00
4:55 am 04:55 Clear 54 12 39 4 58 58 Calm 29.91 1013 10 16 0.00 0.00
5:15 am 05:15 Clear 55 13 41 5 59 59 W 5 7 29.91 1013 10 16 0.00 0.00
5:35 am 05:35 Clear 52 11 39 4 62 62 W 5 7 29.94 1014 10 16 0.00 0.00
5:55 am 05:55 Clear 50 10 39 4 67 67 WNW 5 7 29.94 1014 10 16 0.00 0.00
6:15 am 06:15 Clear 50 10 39 4 67 67 WNW 6 9 29.94 1014 10 16 0.00 0.00
6:35 am 06:35 Sunny 50 10 41 5 71 71 NW 6 9 29.94 1014 10 16 0.00 0.00
6:55 am 06:55 Sunny 50 10 39 4 67 67 WNW 6 9 29.94 1014 10 16 0.00 0.00
7:15 am 07:15 Sunny 52 11 41 5 67 67 NW 6 9 29.94 1014 10 16 0.00 0.00
7:35 am 07:35 Sunny 54 12 41 5 63 63 NW 3 6 29.91 1013 10 16 0.00 0.00
7:55 am 07:55 Sunny 54 12 43 6 67 67 Calm 29.94 1014 10 16 0.00 0.00
8:15 am 08:15 Sunny 55 13 45 7 67 67 Calm 29.94 1014 10 16 0.00 0.00
8:35 am 08:35 Sunny 57 14 45 7 63 63 Calm 29.94 1014 10 16 0.00 0.00
8:55 am 08:55 Sunny 63 17 46 8 56 56 NE 7 11 29.91 1013 5 8 0.00 0.00
9:15 am 09:15 Sunny 64 18 46 8 52 52 NNE 6 9 29.91 1013 5 8 0.00 0.00
9:35 am 09:35 Sunny 66 19 45 7 46 46 NE 7 11 29.91 1013 5 8 0.00 0.00
9:55 am 09:55 Sunny 70 21 46 8 43 43 NE 7 11 29.88 1012 2 3 0.00 0.00
10:15 am 10:15 Sunny 72 22 45 7 38 38 ENE 8 13 29.88 1012 10 16 0.00 0.00
10:35 am 10:35 Sunny 73 23 45 7 36 36 ENE 9 15 29.85 1011 9 14 0.00 0.00
10:55 am 10:55 Sunny 73 23 45 7 36 36 ENE 10 17 29.85 1011 10 16 0.00 0.00
11:15 am 11:15 Sunny 75 24 45 7 34 34 E 9 15 29.85 1011 10 16 0.00 0.00
11:35 am 11:35 Sunny 77 25 45 7 32 32 ENE 7 11 29.85 1011 10 16 0.00 0.00
11:55 am 11:55 Sunny 79 26 45 7 30 30 E 8 13 29.85 1011 10 16 0.00 0.00
12:15 pm 12:15 Sunny 79 26 45 7 30 30 ESE 7 11 29.83 1010 10 16 0.00 0.00
12:35 pm 12:35 Sunny 81 27 46 8 30 30 ESE 7 11 29.80 1009 10 16 0.00 0.00
12:55 pm 12:55 Sunny 81 27 45 7 28 28 ESE 8 13 29.80 1009 10 16 0.00 0.00
1:15 pm 13:15 Sunny 81 27 45 7 28 28 SSE 5 7 29.80 1009 10 16 0.00 0.00
1:35 pm 13:35 Sunny 81 27 43 6 26 26 SSE 6 9 29.80 1009 10 16 0.00 0.00
1:55 pm 13:55 Sunny 81 27 43 6 26 26 Calm 29.77 1008 10 16 0.00 0.00
2:15 pm 14:15 Sunny 81 27 43 6 26 26 ENE 6 9 29.77 1008 10 16 0.00 0.00
2:35 pm 14:35 Sunny 82 28 45 7 26 26 ESE 8 13 29.77 1008 10 16 0.00 0.00
2:55 pm 14:55 Sunny 82 28 43 6 25 25 Calm 29.77 1008 10 16 0.00 0.00
3:15 pm 15:15 Sunny 82 28 41 5 23 23 ESE 3 6 29.77 1008 10 16 0.00 0.00
3:35 pm 15:35 Sunny 82 28 41 5 23 23 S 7 11 29.77 1008 10 16 0.00 0.00
3:55 pm 15:55 Sunny 82 28 43 6 25 25 SSE 7 11 29.74 1007 10 16 0.00 0.00
4:15 pm 16:15 Sunny 84 29 43 6 23 23 SE 12 19 29.74 1007 10 16 0.00 0.00
4:35 pm 16:35 Sunny 84 29 43 6 23 23 SE 8 13 29.74 1007 10 16 0.00 0.00
4:55 pm 16:55 Sunny 84 29 43 6 23 23 ESE 9 15 29.74 1007 10 16 0.00 0.00
5:15 pm 17:15 Sunny 82 28 41 5 23 23 S 6 9 29.74 1007 10 16 0.00 0.00
5:35 pm 17:35 Sunny 84 29 43 6 23 23 SE 14 22 29.74 1007 10 16 0.00 0.00
5:55 pm 17:55 Sunny 82 28 43 6 25 25 SE 15 24 29.74 1007 3 4 0.00 0.00
6:15 pm 18:15 Sunny 82 28 43 6 25 25 SE 13 20 29.74 1007 10 16 0.00 0.00
6:35 pm 18:35 Sunny 82 28 43 6 25 25 SSE 15 24 29.74 1007 10 16 0.00 0.00
6:55 pm 18:55 Sunny 82 28 43 6 25 25 SE 12 19 29.74 1007 10 16 0.00 0.00
7:15 pm 19:15 Sunny 81 27 43 6 26 26 SSE 14 22 29.74 1007 10 16 0.00 0.00
7:35 pm 19:35 Sunny 81 27 43 6 26 26 SSE 13 20 29.71 1006 10 16 0.00 0.00
7:55 pm 19:55 Sunny 77 25 45 7 32 32 SSE 10 17 29.77 1008 10 16 0.00 0.00
8:15 pm 20:15 Sunny 75 24 43 6 31 31 SSE 9 15 29.77 1008 10 16 0.00 0.00
8:35 pm 20:35 Sunny 72 22 45 7 38 38 SE 9 15 29.80 1009 10 16 0.00 0.00
8:55 pm 20:55 Clear 70 21 43 6 38 38 SSE 10 17 29.80 1009 10 16 0.00 0.00
9:15 pm 21:15 Clear 70 21 43 6 38 38 SSE 12 19 29.80 1009 10 16 0.00 0.00
9:35 pm 21:35 Clear 66 19 43 6 43 43 SE 9 15 29.80 1009 10 16 0.00 0.00
9:55 pm 21:55 Clear 64 18 43 6 46 46 SSE 8 13 29.83 1010 10 16 0.00 0.00
10:15 pm 22:15 Clear 64 18 43 6 46 46 SSE 8 13 29.83 1010 10 16 0.00 0.00
10:35 pm 22:35 Clear 63 17 45 7 52 52 SE 9 15 29.83 1010 10 16 0.00 0.00
10:55 pm 22:55 Clear 63 17 45 7 52 52 SE 9 15 29.83 1010 10 16 0.00 0.00
11:15 pm 23:15 Clear 61 16 45 7 55 55 SE 10 17 29.85 1011 10 16 0.00 0.00
11:35 pm 23:35 Clear 63 17 45 7 52 52 SE 12 19 29.85 1011 10 16 0.00 0.00
11:55 pm 23:55 Clear 64 18 45 7 49 49 SSE 13 20 29.85 1011 10 16 0.00 0.00

Powered by AerisWeather